Weather History for Kangerlussuaq, Greenland

Change the Weather History Date:

Thursday, November 29, 2012

  Actual Average Record
Temperature  
Mean Temperature 20 °F -  
Max Temperature 28 °F 10 °F 51 °F (2010)
Min Temperature 12 °F -7 °F -25 °F (2001)
Degree Days  
Heating Degree Days 45    
Moisture  
Dew Point 14 °F    
Average Humidity 78    
Maximum Humidity 93    
Minimum Humidity 52    
Precipitation  
Precipitation 0.00 in 0.01 in - ()
Sea Level Pressure  
Sea Level Pressure 30.03 in    
Wind  
Wind Speed 8 mph ()    
Max Wind Speed 16 mph    
Max Gust Speed 25 mph    
Visibility 6.2 miles    
Events Snow    
Averages and records for this station are not official NWS values.
T = Trace of Precipitation, MM = Missing Value Source: Averaged Metar Reports

Daily Weather History Graph

Daily Weather History Graph

Search for Another Location

Airport:

Trip Planner

Search our weather history database for the weather conditions in past years. The results will help you decide how hot, cold, wet, or windy it might be!

Date:

Astronomy

Nov. 29, 2012 Rise Set
Actual Time 10:24 AM WGT 1:57 PM WGT
Civil Twilight 8:51 AM WGT 3:30 PM WGT
Nautical Twilight 7:35 AM WGT 4:46 PM WGT
Astronomical Twilight 6:29 AM WGT 5:52 PM WGT
Moon 2:49 PM WGT (11/29) 11:12 AM WGT (11/29)
Length of Visible Light 6h 38m
Length of Day
3h 33m
Full, 99% of the Moon is Illuminated
Nov 29
Full
Dec 6
Last Quarter
Dec 13
New
Dec 20
First Quarter
Dec 28
Full

Hourly Weather History & Observations

Time (WGT) Temp. Windchill Dew Point Humidity Pressure Visibility Wind Dir Wind Speed Gust Speed Precip Events Conditions
12:00 AM 24 °F - 22 °F 89% 29.57 in 31 mi ENE 12.7 mph - -   Clear
12:20 AM 23.0 °F 10.6 °F 21.2 °F 93% 29.56 in 6.2 mi ENE 13.8 mph - N/A   Scattered Clouds
12:50 AM 24.8 °F 12.9 °F 17.6 °F 74% 29.59 in 6.2 mi East 13.8 mph - N/A   Mostly Cloudy
1:20 AM 23.0 °F 10.1 °F 17.6 °F 80% 29.62 in 6.2 mi East 15.0 mph - N/A   Mostly Cloudy
1:50 AM 23.0 °F 10.6 °F 15.8 °F 74% 29.65 in 6.2 mi ENE 13.8 mph - N/A   Partly Cloudy
2:20 AM 24.8 °F 13.4 °F 15.8 °F 69% 29.65 in 6.2 mi ENE 12.7 mph - N/A   Mostly Cloudy
2:50 AM 23.0 °F 10.6 °F 15.8 °F 74% 29.68 in 6.2 mi East 13.8 mph 25.3 mph N/A   Mostly Cloudy
3:00 AM 25 °F - 15 °F 52% 29.71 in 31 mi East 16.1 mph - -   Mostly Cloudy
3:20 AM 28.4 °F 18.5 °F 15.8 °F 59% 29.71 in 6.2 mi ESE 11.5 mph - N/A   Overcast
3:50 AM 28.4 °F 23.3 °F 15.8 °F 59% 29.74 in 6.2 mi Variable 4.6 mph - N/A   Mostly Cloudy
4:20 AM 28.4 °F 17.0 °F 15.8 °F 59% 29.77 in 6.2 mi South 15.0 mph - N/A   Overcast
4:50 AM 26.6 °F 15.2 °F 24.8 °F 93% 29.80 in 6.2 mi West 13.8 mph - N/A   Mostly Cloudy
5:20 AM 28.4 °F 19.7 °F 24.8 °F 86% 29.86 in 6.2 mi West 9.2 mph - N/A   Overcast
5:50 AM 28.4 °F 19.7 °F 23.0 °F 80% 29.89 in 6.2 mi WNW 9.2 mph - N/A Snow Light Snow Showers
6:00 AM 28 °F - 20 °F 63% 29.92 in 28 mi West 10.4 mph - -   Unknown Precipitation
6:20 AM 26.6 °F 18.2 °F 21.2 °F 80% 29.92 in 6.2 mi West 8.1 mph - N/A Snow Light Snow Showers
6:50 AM 26.6 °F 19.1 °F 21.2 °F 80% 29.95 in 6.2 mi WNW 6.9 mph - N/A   Mostly Cloudy
7:20 AM 26.6 °F 21.2 °F 21.2 °F 80% 29.98 in 6.2 mi East 4.6 mph - N/A Snow Light Snow
7:50 AM 26.6 °F 22.6 °F 21.2 °F 80% 30.01 in 6.2 mi ENE 3.5 mph - N/A   Mostly Cloudy
8:20 AM 24.8 °F 19.1 °F 21.2 °F 86% 30.04 in 6.2 mi NE 4.6 mph - N/A   Mostly Cloudy
8:50 AM 23.0 °F - 19.4 °F 86% 30.04 in 6.2 mi Variable 2.3 mph - N/A   Mostly Cloudy
9:00 AM 24 °F - 19 °F 72% 30.08 in 31 mi NE 1.2 mph - -   Mostly Cloudy
9:20 AM 23.0 °F - 17.6 °F 80% 30.06 in 6.2 mi Variable 1.2 mph - N/A   Scattered Clouds
9:50 AM 19.4 °F 12.8 °F 15.8 °F 86% 30.06 in 6.2 mi ENE 4.6 mph - N/A   Unknown
10:20 AM 17.6 °F 7.3 °F 15.8 °F 93% 30.09 in 6.2 mi ENE 8.1 mph - N/A   Unknown
10:50 AM 17.6 °F 6.4 °F 15.8 °F 93% 30.09 in 6.2 mi ENE 9.2 mph - N/A   Partly Cloudy
11:20 AM 17.6 °F 7.3 °F 15.8 °F 93% 30.12 in 6.2 mi ENE 8.1 mph - N/A   Unknown
11:50 AM 17.6 °F 5.0 °F 14.0 °F 86% 30.15 in 6.2 mi ENE 11.5 mph - N/A   Partly Cloudy
12:00 PM 19 °F - 13 °F 66% 30.17 in 31 mi ENE 10.4 mph - -   Partly Cloudy
12:20 PM 19.4 °F 8.6 °F 12.2 °F 74% 30.15 in 6.2 mi ENE 9.2 mph - N/A   Partly Cloudy
12:50 PM 19.4 °F 8.6 °F 12.2 °F 74% 30.15 in 6.2 mi East 9.2 mph - N/A   Unknown
1:20 PM 19.4 °F 10.4 °F 10.4 °F 68% 30.18 in 6.2 mi NE 6.9 mph - N/A   Scattered Clouds
1:50 PM 17.6 °F 9.3 °F 10.4 °F 73% 30.18 in 6.2 mi ENE 5.8 mph - N/A   Mostly Cloudy
2:20 PM 17.6 °F 7.3 °F 10.4 °F 73% 30.18 in 6.2 mi ENE 8.1 mph - N/A   Partly Cloudy
2:50 PM 15.8 °F 6.1 °F 8.6 °F 73% 30.18 in 6.2 mi ENE 6.9 mph - N/A   Partly Cloudy
3:00 PM 16 °F - 9 °F 62% 30.22 in 31 mi NE 5.8 mph - -   Scattered Clouds
3:20 PM 15.8 °F 6.1 °F 8.6 °F 73% 30.18 in 6.2 mi ENE 6.9 mph - N/A   Scattered Clouds
3:50 PM 14.0 °F 5.1 °F 8.6 °F 79% 30.18 in 6.2 mi ENE 5.8 mph - N/A   Mostly Cloudy
4:20 PM 12.2 °F 4.3 °F 6.8 °F 79% 30.18 in 6.2 mi ENE 4.6 mph - N/A   Mostly Cloudy
4:50 PM 15.8 °F 8.6 °F 10.4 °F 79% 30.21 in 6.2 mi NE 4.6 mph - N/A   Mostly Cloudy
5:20 PM 15.8 °F 8.6 °F 10.4 °F 79% 30.21 in 6.2 mi ENE 4.6 mph - N/A   Overcast
5:50 PM 15.8 °F - 8.6 °F 73% 30.21 in 6.2 mi West 2.3 mph - N/A   Mostly Cloudy
6:00 PM 13 °F - 7 °F 66% 30.23 in 31 mi West 1.2 mph - -   Partly Cloudy
6:20 PM 14.0 °F 8.2 °F 8.6 °F 79% 30.21 in 6.2 mi ENE 3.5 mph - N/A   Overcast
6:50 PM 14.0 °F 8.2 °F 8.6 °F 79% 30.21 in 6.2 mi ENE 3.5 mph - N/A   Mostly Cloudy
7:20 PM 12.2 °F 6.1 °F 8.6 °F 85% 30.21 in 6.2 mi ENE 3.5 mph - N/A   Mostly Cloudy
7:50 PM 15.8 °F 10.2 °F 10.4 °F 79% 30.21 in 6.2 mi ENE 3.5 mph - N/A   Mostly Cloudy
8:20 PM 15.8 °F 10.2 °F 10.4 °F 79% 30.18 in 6.2 mi ENE 3.5 mph - N/A   Overcast
8:50 PM 14.0 °F 8.2 °F 10.4 °F 86% 30.18 in 6.2 mi ENE 3.5 mph - N/A   Mostly Cloudy
9:00 PM 15 °F - 10 °F 72% 30.22 in 31 mi ENE 3.5 mph - -   Mostly Cloudy
9:20 PM 15.8 °F 8.6 °F 10.4 °F 79% 30.18 in 6.2 mi East 4.6 mph - N/A   Overcast
9:50 PM 14.0 °F 5.1 °F 10.4 °F 86% 30.18 in 6.2 mi ENE 5.8 mph - N/A Snow Light Snow
10:20 PM 14.0 °F 5.1 °F 10.4 °F 86% 30.18 in 6.2 mi ENE 5.8 mph - N/A Snow Light Snow Grains
10:50 PM 15.8 °F 7.2 °F 10.4 °F 79% 30.18 in 6.2 mi NE 5.8 mph - N/A   Mostly Cloudy
11:20 PM 15.8 °F 7.2 °F 12.2 °F 86% 30.18 in 6.2 mi NE 5.8 mph - N/A Snow Light Snow Showers
11:50 PM 15.8 °F 6.1 °F 12.2 °F 86% 30.18 in 4.3 mi NE 6.9 mph - N/A Snow Light Snow Showers